Weather Service Report


926 
ASUS45 KSLC 201510
RWRUT 

UTAH REGIONAL WEATHER ROUNDUP
NATIONAL WEATHER SERVICE SALT LAKE CITY UT
900 AM MDT SAT OCT 20 2018

UTZ001>011-023>025-201600-

NORTHERN UTAH
  
CITY           SKY/WX    TMP DP  RH WIND       PRES   REMARKS
BRIGHAM CITY   SUNNY     39  32  76 CALM      30.38R                  
HILL AFB       SUNNY     45  29  53 E23       30.36R                  
LOGAN          SUNNY     33  30  88 CALM      30.40R                  
OGDEN          SUNNY     47  30  51 S6        30.36R                  
SALT LAKE CITY SUNNY     45  34  65 SE6       30.36R                  
TOOELE VALLEY  SUNNY     43  32  65 S8        30.36S                  
WENDOVER       MOSUNNY   40  30  67 CALM      30.36R                  
HEBER CITY       N/A     32  30  93 CALM      30.45S                  
WEST JORDAN    SUNNY     46  35  66 SE6       30.37S                  

$$

UTZ011>015-024>027-201600-

CENTRAL/NORTHEAST UTAH
  
CITY           SKY/WX    TMP DP  RH WIND       PRES   REMARKS
PROVO AIRPORT  SUNNY     41  36  82 CALM      30.41R                  
MOAB/CANYONLAN SUNNY     46  41  82 S5        30.40R                  
DELTA          SUNNY     41  34  75 CALM      30.37R                  
PRICE          SUNNY     43  32  65 SE7       30.44R                  
RICHFIELD      SUNNY     34  34 100 CALM      30.40R                  
ROOSEVELT      SUNNY     37  34  87 CALM      30.51R                  
VERNAL         SUNNY     42  34  73 CALM      30.49R                  

$$

UTZ013>016-019>022-027-201600-

SOUTHERN UTAH
  
CITY           SKY/WX    TMP DP  RH WIND       PRES   REMARKS
BRYCE CANYON   CLOUDY    31  27  85 W3        30.45R                  
CEDAR CITY     SUNNY     40  29  64 CALM      30.34R                  
MILFORD        SUNNY     41  34  76 CALM      30.35S                  
ST GEORGE      MOSUNNY   52  35  52 CALM      30.25R                  
HANKSVILLE     CLOUDY    37  37 100 CALM      30.44R                  
KANAB          SUNNY     54  36  50 CALM      30.36R                  
BLANDING         N/A     50  34  53 N6        30.51R                  

$$

REGIONAL REPORTS     COLORADO/ARIZONA
  
CITY           SKY/WX    TMP DP  RH WIND       PRES   REMARKS
CRAIG, CO      SUNNY     30  28  92 CALM      30.51R                  
GRAND JUNCTION SUNNY     47  35  63 SE12      30.45R                  
RIFLE, CO      SUNNY     37  32  82 CALM      30.50R                  
MONTROSE, CO   SUNNY     40  32  73 SE7       30.51R                  
CORTEZ, CO     SUNNY     43  32  65 NE3       30.46R                  
COLORADO CITY    N/A     61  34  36 E18G29    30.31S                  
PAGE, AZ       PTSUNNY   54  41  61 CALM      30.34R                  
GRAND CANYON   MOSUNNY   49  35  58 NE15      30.36R                  
KINGMAN, AZ    PTSUNNY   55  39  54 E3        30.18R                  
FLAGSTAFF, AZ  MOSUNNY   46  34  62 NE12      30.36R                  

$$

REGIONAL REPORTS    NEVADA/IDAHO/WYOMING
  
CITY           SKY/WX    TMP DP  RH WIND       PRES   REMARKS
LAS VEGAS, NV  MOSUNNY   64  33  31 CALM      30.15R                  
ELY, NY        MOSUNNY   27  18  69 SE5       30.39S WCI  22          
ELKO, NV       MOCLDY    36  22  56 CALM      30.35S                  
POCATELLO, ID  SUNNY     33  28  81 NE3       30.39S                  
BURLEY, ID     MOSUNNY   36  31  82 CALM      30.35R                  
EVANSTON, WY   SUNNY     40  27  59 CALM      30.46R                  
ROCK SPRINGS,  SUNNY     36  26  67 CALM      30.47R                  
KEMMERER, WY   SUNNY     34  23  64 N6        30.48R WCI  29          

$$
  

Return to Home page


Western Regional Climate Center, wrcc@dri.edu